Wind_Speed
55 54 55 55 55 54 56 56 56 57 59 62 62 63 64 65 65 65 62 59 58 58 58 58 56 53 51 51 51 50 51 51 52 53 53 53 53 53 52 52 51 50 48 47 46 45 43 43 42 42 42 42 43 43 43 44 44 45 47 50 54 58 60 60 58 56 56 56 56 56 56 58 60 60 59 59 59 59 59 59 60 61 62 61 59
59 57 56 56 57 57 59 61 63 64 65 65 65 66 70 72 70 67 63 61 57 55 57 59 59 57 56 56 55 54 53 53 54 54 54 54 55 55 55 54 54 53 51 50 49 48 47 46 46 45 45 45 44 44 44 44 45 45 46 47 50 53 58 60 60 58 57 57 59 59 59 59 60 62 62 62 61 61 61 61 61 61 62 62 61
60 60 59 59 59 60 62 64 65 66 67 67 67 68 71 72 69 65 61 58 54 49 50 54 57 57 57 58 58 58 57 57 57 57 56 56 56 56 56 56 56 55 54 53 52 52 51 50 50 49 48 48 48 47 47 46 46 46 47 48 48 50 53 56 59 59 59 58 58 60 61 62 62 63 64 64 64 64 64 63 63 63 63 63 63
63 64 65 65 65 64 65 65 65 65 66 65 64 65 66 65 62 58 56 54 52 50 50 53 56 56 56 57 59 59 59 59 60 61 61 60 59 59 58 58 57 57 56 55 55 54 54 54 53 53 52 52 51 51 50 50 49 49 48 49 50 50 51 53 55 57 59 59 59 60 61 62 63 64 65 66 66 66 67 67 67 66 66 65 65
65 67 68 69 69 68 67 66 66 65 65 64 61 58 58 57 55 54 53 54 56 56 56 56 58 58 56 55 57 58 58 60 62 63 64 64 63 62 61 60 59 58 57 57 57 56 56 56 56 56 55 55 54 54 54 54 54 53 53 52 52 52 53 53 54 56 57 59 60 60 61 63 63 63 64 66 67 68 69 70 70 69 69 68 68
62 64 65 67 67 67 67 67 66 65 64 63 59 54 52 50 50 53 54 53 56 59 60 60 60 58 57 56 57 58 58 60 61 62 63 63 63 63 62 61 60 59 59 58 58 58 58 58 59 58 58 58 58 57 57 57 56 57 57 57 56 55 55 55 56 57 58 59 59 60 62 63 64 64 64 65 67 68 70 72 72 73 73 72 71
60 61 62 63 64 63 63 63 62 61 61 61 58 55 53 49 47 50 51 50 54 57 59 61 58 56 57 57 57 58 59 61 61 62 62 62 62 63 63 62 61 60 59 59 60 60 60 60 61 61 61 61 61 61 60 60 59 60 60 60 60 60 59 59 58 58 59 60 61 61 62 63 64 65 65 65 66 68 69 71 73 74 75 76 75
57 59 59 60 61 60 60 59 59 59 58 59 56 53 53 51 48 49 50 51 53 53 57 60 58 55 57 56 55 56 58 60 62 62 63 63 62 62 62 62 62 61 60 59 59 60 61 62 63 63 64 64 64 64 63 62 63 64 63 63 62 63 63 63 62 62 62 62 62 63 64 64 64 65 66 66 66 67 69 70 72 74 75 76 77
54 54 55 58 58 57 57 56 56 56 55 56 56 53 51 51 52 53 53 54 54 52 55 59 58 56 55 52 49 50 52 55 58 60 63 65 66 65 63 63 63 62 61 60 61 62 63 64 65 66 67 66 66 65 65 65 66 67 67 67 66 66 66 65 65 65 65 65 65 65 65 65 66 66 67 66 67 68 68 69 71 73 74 76 77
54 54 54 57 57 57 56 54 54 55 52 52 56 56 53 53 56 58 59 59 58 55 53 53 53 54 54 51 49 49 50 52 54 56 59 62 64 66 66 65 64 64 64 63 63 64 65 67 68 68 69 69 68 68 68 68 68 68 69 69 70 70 69 69 68 68 68 69 69 69 69 69 68 68 68 68 68 69 69 69 70 72 73 75 77
55 55 56 57 57 57 57 55 55 56 54 51 53 54 55 57 57 58 60 62 62 58 56 55 54 54 55 55 55 53 53 55 56 57 58 59 61 63 64 65 64 64 65 65 64 65 67 69 70 70 71 71 71 71 71 72 72 71 71 72 73 73 73 72 72 71 71 72 72 72 72 73 72 71 71 70 70 70 70 71 71 72 73 74 76
56 56 57 57 57 57 57 56 56 56 54 53 54 54 56 58 59 59 59 61 62 62 61 61 60 59 59 59 59 57 56 57 58 59 60 61 61 61 62 63 63 63 64 64 64 66 68 70 70 72 74 73 73 73 74 74 75 75 75 75 76 76 76 76 75 75 75 75 76 76 76 75 76 76 75 74 74 73 73 73 72 73 74 74 76
56 56 56 57 57 57 58 58 58 57 56 55 56 56 57 59 61 62 62 62 63 63 62 62 62 62 61 61 60 60 60 60 60 61 62 63 63 63 63 64 63 63 62 62 64 66 68 68 68 70 72 72 72 73 74 75 76 77 76 76 77 78 79 79 78 77 77 78 78 79 79 79 79 79 79 78 77 77 77 77 76 75 75 75 76
54 55 55 56 56 57 57 58 58 58 57 57 57 57 58 60 61 62 62 62 62 62 62 62 62 63 63 63 63 63 63 63 63 63 63 65 65 65 65 65 65 65 64 63 65 67 69 69 68 68 69 69 69 71 72 73 76 77 76 76 76 77 79 80 80 79 79 79 80 81 82 82 82 82 82 81 81 81 81 80 80 79 79 79 78
53 55 55 55 55 55 56 58 58 59 59 59 59 59 59 60 61 61 62 62 62 62 63 63 64 64 65 66 66 66 66 66 66 66 66 67 67 67 68 68 68 68 67 67 68 70 72 72 70 70 70 68 68 69 71 73 75 76 76 76 76 76 77 78 79 79 79 80 81 82 84 85 85 85 85 85 85 84 84 83 83 83 83 82 82
54 55 55 55 55 55 56 58 59 60 61 61 61 61 61 61 61 61 61 62 63 64 64 65 66 67 68 69 69 69 69 69 69 69 70 70 70 70 71 71 71 71 71 71 72 73 74 74 73 73 72 70 69 70 71 73 75 75 75 76 77 77 77 77 78 79 79 80 80 82 84 85 86 87 88 89 88 88 87 86 87 87 85 85 85
54 55 56 56 56 57 59 60 61 62 62 63 63 62 62 62 61 62 63 64 65 65 65 66 67 68 69 70 71 71 72 72 71 71 72 73 73 73 73 74 74 74 74 75 75 76 76 77 77 76 76 74 73 73 74 75 75 74 75 76 78 79 80 81 81 82 82 82 83 84 84 85 85 87 89 90 91 91 90 89 90 90 88 87 88
54 55 56 56 57 59 61 62 62 63 63 64 64 64 64 64 65 66 66 67 67 67 68 69 69 70 70 70 71 72 73 73 73 73 73 74 75 75 75 76 76 77 77 77 78 78 78 78 79 79 79 78 78 78 78 78 77 76 76 77 78 80 82 84 85 86 87 87 87 87 87 87 87 87 88 90 91 92 92 91 92 92 91 91 90
56 56 56 57 58 61 62 64 64 65 65 65 66 66 68 69 69 69 69 69 69 69 70 70 71 71 71 72 72 72 73 73 73 73 74 75 75 76 76 77 77 77 78 78 79 79 80 80 80 81 81 81 82 81 81 81 80 80 80 80 80 82 83 84 86 87 87 88 87 87 88 89 89 89 89 90 91 93 93 93 93 93 93 93 93
60 60 60 60 61 63 64 66 66 67 68 69 69 70 71 72 72 72 72 71 71 71 72 72 72 72 73 73 73 73 73 73 73 73 74 75 75 76 76 77 77 78 78 79 79 80 81 81 81 81 82 83 83 83 83 83 83 83 83 84 85 86 86 86 87 87 87 87 86 86 86 87 89 90 91 92 92 94 94 94 94 94 93 94 94
64 64 64 64 64 65 66 67 68 70 71 72 73 73 74 75 75 75 74 74 73 73 73 73 73 73 74 74 74 74 73 73 72 73 73 73 74 75 76 76 77 77 78 78 79 80 81 81 82 82 83 83 84 83 83 84 84 84 85 86 87 88 88 89 90 90 89 88 88 88 87 87 88 89 90 91 92 93 95 96 96 96 95 95 95
67 67 67 68 68 68 69 70 71 72 74 75 76 76 77 77 78 78 77 76 75 74 74 75 75 75 74 74 74 74 73 72 72 72 72 72 73 73 74 75 76 76 76 77 78 79 80 81 82 82 83 83 83 83 84 85 85 86 86 86 87 87 88 89 90 90 89 89 89 89 89 89 89 89 89 89 90 92 93 94 96 97 97 97 97
72 70 70 71 72 72 72 73 74 75 76 77 77 78 79 79 79 79 79 78 77 77 77 77 76 75 74 73 73 72 71 71 71 71 71 71 71 72 73 73 74 74 75 75 76 77 78 79 80 81 82 82 83 84 85 86 86 86 86 86 86 86 87 86 86 86 87 87 87 88 88 89 89 89 90 90 90 91 92 93 94 95 96 96 96
75 74 73 74 74 74 74 75 76 76 77 78 80 81 80 79 79 79 79 79 80 80 80 78 77 75 74 73 71 70 69 69 69 69 69 70 70 71 71 71 71 71 72 73 74 75 76 77 78 80 81 81 82 83 84 85 85 85 85 85 85 85 85 84 83 83 83 83 83 84 85 86 87 88 89 90 90 91 91 91 92 93 94 94 95
77 76 76 76 76 76 76 76 76 77 78 79 81 80 79 78 78 78 78 78 79 81 81 79 77 74 73 72 70 68 67 67 67 68 68 69 70 70 69 69 68 68 68 69 69 70 71 73 75 77 78 79 81 82 82 83 83 83 83 84 83 83 82 81 80 79 79 79 79 80 81 83 84 85 86 87 88 88 88 89 89 90 90 90 91
80 78 78 79 79 79 79 78 78 78 78 79 79 77 76 75 76 77 77 77 78 78 78 77 76 75 73 71 68 66 65 65 65 66 66 67 67 67 67 67 66 65 65 65 64 64 66 68 70 72 74 75 76 77 78 79 80 80 81 81 81 81 79 78 77 76 76 76 76 76 78 79 80 82 83 84 84 85 84 84 84 84 84 84 84
82 81 81 80 80 80 80 80 80 79 78 77 75 74 73 74 75 76 76 76 75 74 73 73 73 74 73 70 67 65 64 63 64 63 63 63 64 64 65 64 64 63 63 62 62 62 63 64 65 66 68 69 70 71 72 73 74 75 75 75 76 76 75 74 74 73 72 72 72 73 74 75 76 77 79 79 80 80 80 79 78 78 78 77 77
83 82 81 81 81 80 80 81 81 79 76 74 73 73 73 75 75 75 73 72 71 70 69 69 69 70 70 68 65 63 63 62 61 61 61 61 62 62 62 62 62 62 62 61 61 61 62 62 62 62 62 63 64 65 65 66 67 67 68 68 68 68 68 68 68 67 67 67 67 68 70 71 72 74 75 75 75 75 75 74 73 73 73 72 71
81 80 80 80 79 79 79 79 79 76 73 72 72 72 72 73 73 71 69 67 67 67 66 65 64 65 66 65 64 62 61 60 59 60 60 60 60 60 60 60 60 60 60 60 60 60 60 59 59 59 59 59 59 60 60 60 61 61 61 61 61 61 61 61 61 61 62 62 63 65 66 68 69 70 70 70 69 70 69 69 68 68 67 67 67
78 77 77 77 76 75 75 75 74 72 70 69 68 68 68 70 70 68 65 64 64 64 62 61 60 61 62 62 61 60 59 58 58 58 58 58 58 59 59 59 59 59 59 59 59 58 58 57 57 56 56 56 55 56 56 56 56 56 55 55 55 55 55 55 56 56 58 60 61 62 63 63 63 64 64 64 64 65 64 63 62 62 62 62 62
72 71 72 72 72 71 71 70 68 67 66 65 63 63 64 66 66 65 63 62 61 60 59 58 58 59 59 58 57 57 57 56 57 57 57 57 57 57 57 57 57 57 57 57 57 56 55 55 54 54 53 53 53 52 52 51 51 51 50 50 50 49 50 51 52 53 55 56 57 57 57 57 57 58 59 59 59 59 59 58 57 56 57 57 57
67 67 68 68 68 67 66 64 63 62 62 61 60 60 61 63 63 62 61 60 59 57 56 56 57 57 56 55 55 55 55 55 56 56 56 56 56 55 55 55 55 55 56 55 54 53 52 52 52 51 51 50 49 48 47 47 46 46 45 45 46 46 46 47 49 50 51 51 51 51 52 53 53 53 54 54 54 54 53 53 52 51 52 53 53
64 65 66 66 65 64 62 60 58 59 59 58 58 58 59 61 61 60 58 57 56 55 55 55 55 54 53 53 53 54 55 55 55 55 55 55 54 53 53 53 53 54 53 53 52 51 50 49 49 48 47 46 45 45 44 43 42 42 42 42 43 44 45 45 46 46 46 47 47 48 49 49 49 49 49 49 49 49 48 48 47 47 47 48 48
61 62 63 63 63 61 59 56 54 55 56 56 55 56 57 59 59 58 56 54 53 53 54 54 53 52 51 51 52 54 55 55 54 54 53 53 52 51 51 51 51 51 51 50 50 49 48 47 46 45 44 44 43 42 40 40 39 40 41 41 42 43 44 43 42 43 44 44 44 45 45 45 46 46 46 45 45 45 44 44 44 44 43 43 43
56 59 60 60 59 58 57 54 51 51 52 53 53 54 55 56 56 55 53 52 52 53 53 53 52 52 51 51 52 53 53 53 52 52 51 51 50 50 49 49 48 48 48 48 48 47 46 45 44 43 43 42 41 40 39 38 39 39 40 41 41 41 41 40 40 41 42 42 42 42 42 43 43 42 42 42 41 41 40 39 39 38 38 38 38
52 55 57 57 56 54 54 52 49 48 48 50 51 51 52 52 53 53 53 52 52 52 52 52 51 51 51 51 51 51 51 50 49 49 49 49 49 48 47 46 46 46 46 46 45 45 44 44 43 43 42 41 40 38 38 38 38 38 38 38 39 39 38 38 38 39 39 39 40 39 39 39 39 38 38 37 36 35 34 33 33 32 32 32 32
49 51 53 54 52 51 50 49 47 46 46 47 47 48 49 51 52 52 52 52 51 50 50 50 50 50 50 49 48 48 47 48 48 48 47 48 48 47 46 45 45 45 44 44 43 43 43 43 43 42 41 40 39 38 37 37 37 36 35 35 35 35 35 35 35 36 36 36 36 35 35 34 34 33 32 31 30 29 29 29 29 29 29 29 30
46 48 49 50 49 47 47 46 45 44 45 45 45 46 48 50 50 50 50 50 49 49 49 49 49 48 47 46 45 45 46 46 46 46 46 47 46 45 45 44 44 43 42 42 42 43 42 42 41 41 40 39 38 37 36 36 35 33 33 32 32 32 33 33 33 33 32 31 31 30 30 29 29 28 28 27 26 26 26 27 27 27 27 28 28
43 44 45 45 45 44 44 44 43 44 44 44 44 45 47 48 48 49 48 48 49 49 48 47 45 44 44 44 44 45 45 44 45 45 46 46 45 44 44 43 42 41 41 41 42 42 41 41 41 40 39 38 37 36 35 34 32 31 30 30 30 30 30 30 29 29 28 27 26 26 25 26 26 26 25 24 24 25 25 25 25 25 26 26 26
39 40 40 41 41 42 42 42 43 43 44 44 44 45 46 46 46 46 47 47 48 47 45 43 42 42 43 43 43 43 44 44 45 45 45 45 44 44 43 41 40 40 41 41 41 40 40 40 40 39 38 36 35 35 34 31 30 29 28 28 27 27 26 26 25 24 23 23 22 22 23 24 25 24 24 23 23 24 24 24 24 24 24 24 24
36 36 36 37 38 39 39 40 41 42 43 44 44 45 45 45 45 45 45 45 45 44 42 41 41 41 41 42 42 43 44 44 45 45 44 44 43 42 41 40 40 40 40 39 39 39 39 38 38 37 36 34 33 33 31 29 27 27 26 25 25 24 23 22 21 20 20 20 20 21 22 22 22 22 22 22 22 22 22 22 22 21 21 21 21
32 32 33 34 34 35 36 37 38 40 41 42 43 43 43 43 44 44 43 43 42 42 41 41 40 40 41 41 42 43 44 44 44 44 43 42 41 41 40 40 40 39 38 37 37 37 37 36 35 34 33 32 31 30 28 26 25 24 23 22 22 21 20 19 18 18 18 18 19 20 20 20 20 20 20 20 20 20 19 19 19 19 18 18 18
28 29 29 30 31 32 33 34 35 37 39 40 41 42 42 42 42 41 41 40 40 40 40 40 40 40 41 42 42 43 43 43 42 41 41 40 40 39 39 38 38 37 36 36 35 35 34 33 33 32 31 30 29 28 25 23 22 21 20 20 19 18 17 16 16 16 17 18 18 18 17 17 18 18 19 19 19 18 18 18 18 17 16 16 16
25 25 25 25 26 27 29 30 32 34 36 37 38 38 38 38 38 38 38 38 39 39 40 40 40 40 40 41 41 41 40 39 39 39 39 38 38 37 36 36 35 35 35 34 33 32 31 31 30 29 28 28 27 25 22 20 19 19 18 18 18 17 16 15 15 15 16 17 17 16 16 16 17 18 19 19 18 18 17 17 16 16 16 15 14
21 22 22 22 22 23 24 26 27 29 31 32 33 33 34 34 35 35 36 37 38 38 38 38 38 38 38 38 38 38 37 36 36 37 37 36 35 34 33 33 33 33 32 31 30 29 28 28 28 27 26 25 24 22 20 18 18 17 17 17 16 16 15 14 13 14 15 16 16 16 16 16 17 18 18 18 18 18 17 16 15 15 14 14 13
19 19 19 19 20 20 21 22 24 25 27 28 29 30 32 33 34 34 35 35 36 36 36 36 36 36 36 36 36 35 35 35 35 35 34 33 32 32 31 31 31 31 30 28 27 27 27 26 26 25 24 23 22 20 18 18 17 16 16 16 16 15 14 13 13 14 15 16 16 16 16 16 16 17 17 18 18 17 16 15 14 13 12 12 12
17 17 17 17 17 18 19 20 21 22 24 25 27 28 30 31 32 32 33 33 33 34 34 34 35 35 34 34 34 34 34 34 34 33 32 31 31 31 31 30 30 28 27 26 26 25 25 25 24 23 22 21 20 19 18 17 16 16 15 15 15 14 13 13 13 14 16 16 16 16 16 15 16 16 16 16 15 14 13 13 13 13 12 12 11
15 15 15 16 17 17 18 18 19 20 21 22 24 25 27 28 29 30 30 31 31 32 32 32 33 32 32 32 32 32 32 32 32 31 31 31 31 30 30 29 28 26 26 25 25 24 24 23 22 21 20 20 19 18 17 17 16 16 15 15 14 14 14 14 14 15 15 15 15 15 16 15 15 15 14 13 13 13 12 12 12 12 12 11 11
14 14 14 15 16 17 18 18 19 20 20 21 22 23 24 25 25 26 27 28 29 29 30 30 30 31 31 31 31 31 31 31 30 30 31 30 30 29 29 27 26 25 25 24 24 23 22 21 20 20 19 19 19 18 17 17 17 16 15 15 15 16 15 15 15 15 15 15 15 15 15 15 15 13 12 11 12 12 12 12 12 12 11 11 10
14 14 14 14 15 16 17 18 19 20 21 21 22 22 23 23 23 24 25 25 26 26 26 27 28 28 29 29 29 29 29 29 29 29 29 29 29 28 27 26 25 24 24 23 23 22 21 20 19 19 19 18 19 19 18 17 17 16 16 16 16 17 17 16 16 16 16 15 15 15 15 15 14 12 11 11 11 11 11 11 11 11 11 10 9
13 13 13 13 14 15 16 17 18 19 20 21 22 22 23 23 23 24 24 24 24 23 23 24 24 25 26 26 26 26 26 27 27 28 28 28 27 26 26 25 24 24 23 23 22 21 20 20 19 19 18 18 19 19 18 18 18 17 17 18 18 18 18 18 17 17 17 16 15 14 15 15 15 13 11 10 10 11 11 10 10 10 10 9 9
Wind_Direction
243 247 251 252 252 254 255 255 259 265 268 270 271 271 271 276 282 283 280 277 275 272 266 262 263 266 264 263 264 265 265 263 260 259 259 258 257 256 255 255 254 254 254 254 253 252 252 253 253 254 255 256 257 257 256 255 253 251 250 248 246 244 244 244 244 243 242 241 241 242 242 241 242 242 242 243 243 243 244 244 244 245 246 246 246
244 248 252 254 256 256 257 257 260 264 266 267 269 270 272 277 281 281 278 275 274 270 265 260 260 263 264 262 262 262 263 262 260 258 258 258 257 256 255 254 254 253 253 253 252 252 251 251 251 252 253 255 256 257 257 257 256 255 253 251 250 248 246 246 246 244 243 241 241 241 241 241 241 242 243 244 244 244 245 245 245 246 246 246 246
246 248 249 252 256 258 259 260 262 263 265 268 271 273 274 276 278 277 274 272 270 267 265 262 261 262 264 262 260 259 259 260 259 257 258 258 258 257 255 255 254 253 253 252 252 252 251 251 251 251 252 253 254 256 257 257 257 256 255 254 253 251 249 247 246 245 244 243 242 241 241 241 241 242 243 245 245 245 246 246 246 247 247 247 246
247 249 250 252 255 257 259 261 263 264 266 269 272 274 275 275 274 272 269 266 264 265 266 264 263 264 265 262 259 257 257 257 257 257 258 259 260 258 256 255 254 254 254 253 252 252 252 251 251 251 251 252 252 254 255 257 257 257 257 255 254 253 252 250 248 247 246 245 244 243 242 242 242 242 243 244 245 246 246 247 247 247 247 248 248
248 250 252 254 256 257 258 260 262 264 266 267 269 270 270 269 268 267 265 262 262 265 265 264 264 266 266 262 258 257 257 257 257 257 258 259 260 258 257 256 255 254 254 254 254 254 254 253 253 252 252 253 253 253 253 255 255 256 256 256 255 254 253 252 251 249 248 247 246 246 245 245 244 244 244 244 244 245 246 246 247 247 248 248 248
250 252 253 255 257 257 258 259 261 262 262 262 263 264 263 264 264 263 263 263 265 266 267 266 264 263 262 260 257 257 258 257 257 257 258 259 259 258 257 257 255 254 254 255 255 255 255 256 255 254 253 253 253 253 253 253 254 254 255 255 255 255 254 253 252 251 250 249 249 248 248 248 247 246 246 245 245 244 245 245 246 246 247 248 248
255 255 255 256 257 258 259 259 259 258 258 259 260 260 258 257 259 261 262 264 267 267 266 265 262 261 262 263 260 258 257 256 256 256 257 257 258 258 257 257 256 255 256 257 257 257 256 256 256 256 255 254 253 253 253 253 253 253 254 254 254 254 254 254 253 253 252 251 250 250 249 249 249 249 248 247 246 246 245 245 246 246 247 247 247
257 257 257 257 257 258 258 258 257 256 256 256 256 255 253 250 254 259 259 260 263 264 265 266 265 265 266 267 267 264 259 256 255 255 256 256 256 257 257 257 257 257 257 259 260 260 258 257 257 256 256 255 254 254 254 254 254 254 253 253 253 253 253 254 254 254 253 252 252 251 250 249 250 250 250 250 249 248 247 246 246 246 247 247 247
256 256 256 256 256 255 254 255 256 255 254 253 251 248 247 246 249 254 254 255 258 260 263 266 268 270 269 268 271 271 266 262 260 258 257 256 255 256 257 257 257 257 257 259 261 260 258 257 257 257 256 256 256 255 255 255 255 255 254 253 253 252 252 253 253 254 254 254 254 253 252 250 250 250 250 250 250 250 250 249 248 247 247 247 248
255 256 255 255 256 256 255 255 255 254 254 255 252 248 247 248 251 253 255 257 259 260 262 264 268 271 271 270 272 272 269 268 266 263 260 258 257 256 256 257 256 255 255 257 259 259 258 256 256 256 256 256 256 256 256 256 256 256 255 254 254 254 253 252 252 253 253 254 254 254 254 253 251 250 250 250 250 250 251 251 250 250 249 249 248
255 255 255 256 257 257 257 257 256 256 257 255 252 253 255 255 253 253 256 258 259 259 259 260 263 265 266 268 270 269 267 267 267 266 264 262 260 258 258 257 256 254 253 254 255 256 256 256 256 257 256 255 255 256 256 256 256 256 256 256 256 255 255 254 253 253 253 253 254 254 254 254 254 252 252 251 251 250 251 251 251 251 251 251 251
254 254 254 256 257 257 258 257 255 255 255 251 250 254 257 255 253 252 253 255 258 259 259 259 260 261 261 263 266 265 264 264 265 265 265 265 264 263 261 261 259 257 256 255 254 253 252 254 255 256 256 255 254 255 255 256 256 256 257 257 257 257 257 256 255 254 253 253 253 253 253 253 254 254 253 253 253 252 252 251 251 251 251 251 251
252 253 253 253 254 255 256 257 256 255 253 251 250 251 252 251 252 252 252 254 257 260 260 260 261 261 261 261 262 262 262 262 262 263 265 265 266 265 265 264 263 262 261 260 259 257 255 254 253 255 256 255 255 255 255 255 255 256 256 256 257 258 257 257 256 255 255 254 253 253 253 252 253 254 253 253 253 253 253 253 252 252 252 252 251
252 253 252 252 252 252 253 254 255 255 254 253 253 252 251 251 253 254 255 256 258 259 261 262 262 263 263 262 261 261 261 260 261 261 262 263 264 265 265 266 266 265 265 264 264 264 262 259 256 255 254 254 253 254 254 255 255 255 255 256 257 257 257 256 255 255 255 255 254 253 253 253 253 253 253 253 252 253 253 253 253 253 253 253 253
256 255 254 252 251 250 250 251 251 253 254 255 255 255 254 254 255 256 257 258 259 260 261 262 263 264 264 264 263 262 262 261 261 260 260 260 261 262 263 264 264 265 265 265 264 264 264 263 261 260 257 255 253 253 253 254 254 255 256 256 256 256 256 255 255 255 255 255 255 255 255 254 253 253 254 254 253 252 253 253 253 254 254 254 254
257 257 256 254 253 252 250 249 249 250 252 254 256 257 257 257 258 259 259 260 261 262 263 264 265 265 266 266 266 265 264 263 263 262 261 260 260 260 261 261 262 262 263 263 263 264 264 265 264 264 262 260 258 256 256 255 255 255 256 256 256 256 256 255 255 255 255 256 257 257 256 256 256 255 255 255 254 253 253 253 253 254 254 254 254
256 256 256 255 255 254 253 252 252 253 254 255 257 257 258 258 258 259 260 261 262 263 264 265 266 266 267 267 268 268 267 266 265 264 263 263 261 260 260 260 260 260 260 260 261 262 263 265 265 265 265 264 263 261 260 259 258 257 257 257 257 257 257 256 256 256 256 258 258 258 257 257 257 256 256 256 255 255 254 254 254 254 254 254 254
257 257 257 257 257 257 257 258 259 259 260 260 260 259 259 258 258 259 260 261 263 264 265 265 265 266 267 267 268 269 269 268 267 265 264 264 263 262 261 260 260 260 260 260 260 260 261 262 264 265 265 265 264 264 264 263 263 262 260 259 259 259 258 258 258 257 258 258 259 258 257 256 256 256 256 256 256 256 255 254 254 254 254 254 254
260 258 257 257 258 258 259 261 262 262 263 263 262 262 262 262 262 262 262 263 264 265 266 267 267 268 268 269 269 269 269 268 268 267 265 264 263 263 262 261 261 261 261 260 260 261 261 261 261 262 263 263 263 263 263 263 263 263 263 263 262 261 261 260 260 260 260 259 259 258 257 256 256 256 256 256 256 256 255 255 255 255 255 255 255
262 260 259 257 257 258 260 261 263 263 264 264 264 264 264 265 265 265 266 266 266 267 267 268 269 270 270 271 270 270 269 268 268 267 266 265 264 264 263 262 261 260 260 261 261 261 261 261 261 261 262 262 262 263 263 262 262 262 262 262 262 262 263 263 262 262 262 262 261 260 259 258 257 256 256 256 256 256 256 255 255 255 255 255 256
260 261 261 260 260 260 261 263 264 265 266 266 266 267 267 267 267 267 267 267 268 268 269 269 270 271 271 272 272 271 271 270 269 268 267 266 266 265 264 263 262 261 261 261 261 261 261 262 262 262 262 262 263 263 263 263 263 262 262 261 261 261 262 262 263 263 263 264 264 263 262 261 260 259 258 258 257 257 256 256 256 255 255 255 255
261 261 261 262 262 262 262 263 264 264 265 266 267 268 268 269 269 269 269 269 270 270 271 271 271 271 271 271 272 272 272 272 271 270 269 268 266 265 264 263 262 262 261 261 261 261 261 262 262 263 263 264 264 264 264 264 264 263 263 262 262 262 261 261 262 263 263 263 264 264 264 263 263 262 261 260 259 258 258 257 257 257 256 255 255
263 262 262 261 261 261 261 261 262 263 264 265 265 266 267 267 269 270 271 272 273 272 272 272 272 272 272 272 272 272 272 272 272 271 270 269 268 266 265 264 263 262 262 261 261 261 262 262 262 263 263 264 264 264 264 264 264 264 265 265 265 264 264 263 263 264 264 264 264 264 264 264 264 264 263 262 261 260 259 259 258 258 257 257 256
265 264 264 263 262 261 261 260 260 261 262 263 263 264 264 266 267 269 271 273 274 274 274 273 273 273 273 273 272 272 272 272 272 271 271 270 269 268 267 266 265 264 263 263 262 262 262 263 263 263 263 264 264 264 265 265 266 266 266 266 266 266 266 266 266 266 266 266 266 266 266 266 265 265 264 263 263 262 261 260 260 259 259 258 257
266 266 266 265 265 264 263 262 262 262 262 262 263 264 265 266 268 269 270 271 272 273 274 275 275 274 273 273 272 272 272 271 271 271 270 270 270 270 270 269 268 267 266 265 264 263 263 263 263 263 263 263 263 264 264 265 266 266 267 267 267 268 268 268 268 268 268 268 268 267 267 266 266 265 265 264 264 264 263 262 261 261 260 260 259
268 268 267 267 267 267 266 266 265 264 264 264 265 266 267 268 269 269 269 270 270 271 272 273 274 274 273 273 272 272 272 271 270 270 270 270 270 271 271 271 270 270 269 268 267 266 265 264 263 263 263 263 263 264 264 265 265 266 266 267 268 269 269 270 270 270 270 270 269 269 268 267 267 266 266 265 265 265 265 264 264 263 263 263 262
269 269 269 268 268 268 268 268 267 267 266 266 267 268 269 269 268 268 267 267 267 268 269 270 272 273 273 273 273 273 272 272 271 271 271 271 270 271 271 271 271 271 271 270 270 268 267 265 264 264 264 264 264 264 264 265 265 266 266 267 268 269 270 270 271 271 270 270 270 269 268 268 267 267 266 266 266 265 265 266 266 266 266 265 265
269 269 269 269 268 268 268 268 268 268 268 268 269 269 268 268 266 265 265 265 266 267 268 268 269 270 272 273 273 273 272 272 272 272 272 271 271 271 271 272 272 272 272 272 271 270 269 268 267 266 266 266 265 265 266 266 266 267 267 268 268 269 269 270 270 270 270 269 269 268 267 267 266 265 265 265 266 267 267 268 268 269 269 269 269
269 269 269 268 268 268 268 268 268 268 268 268 268 267 267 266 266 266 266 267 267 267 267 267 267 268 270 271 271 271 272 272 272 272 271 271 271 271 272 272 272 272 272 272 271 270 270 269 269 268 268 268 268 268 268 268 268 268 269 269 269 270 270 270 270 269 269 268 266 266 265 265 265 266 267 268 269 270 271 271 271 271 271 271 270
267 267 267 267 267 267 267 266 267 267 267 267 266 266 266 266 266 267 267 266 266 265 265 266 266 266 267 268 269 270 271 271 271 270 270 270 271 271 271 271 271 271 271 271 270 270 271 271 271 271 270 270 270 270 270 270 270 270 270 270 270 270 270 269 268 267 266 265 265 265 265 266 268 269 270 271 271 272 272 272 272 272 272 271 270
266 266 266 266 266 265 265 265 265 266 266 266 265 265 265 265 265 265 265 265 264 264 264 264 264 265 265 266 268 269 270 269 269 269 269 269 269 269 269 269 270 270 270 271 271 271 272 272 272 272 272 272 272 272 272 272 272 272 272 271 270 269 268 268 267 266 265 265 267 268 269 270 271 271 271 272 272 273 274 274 273 273 272 272 271
265 265 265 264 264 263 263 263 264 264 264 263 263 262 262 262 263 263 263 262 263 263 263 263 263 264 265 267 267 268 268 268 267 267 267 267 267 267 268 269 269 270 271 271 272 273 273 274 274 274 274 274 274 275 275 274 274 273 273 272 271 269 268 267 266 266 267 269 270 271 271 272 272 272 273 274 274 274 274 274 274 273 272 271 271
263 263 263 263 263 263 262 262 262 262 262 261 260 260 260 260 261 261 261 261 262 262 262 262 263 263 264 266 266 267 266 266 266 265 265 266 266 267 268 268 269 270 271 272 273 274 274 274 275 275 276 276 277 276 276 275 275 275 274 273 272 271 269 268 268 269 271 271 272 272 273 273 274 274 274 275 275 275 275 275 274 273 271 270 270
260 261 261 262 263 263 264 263 262 262 262 262 261 260 259 259 260 260 261 261 261 261 261 262 263 263 263 263 263 263 263 264 264 264 265 265 266 266 267 267 268 269 271 272 273 274 275 276 276 277 277 277 277 276 276 276 277 276 275 273 272 272 272 272 273 274 274 274 274 275 275 275 275 276 276 276 277 276 276 275 274 274 273 272 272
259 260 261 262 262 263 264 263 262 260 260 260 259 258 257 258 259 260 260 260 260 259 260 260 261 262 261 261 260 260 261 262 263 264 265 266 266 266 266 267 268 269 270 271 273 274 275 276 277 277 276 276 276 277 277 277 276 275 274 273 273 273 274 275 276 276 276 276 276 276 276 277 277 277 278 277 276 276 276 276 276 276 276 275 275
256 257 259 260 261 262 262 262 261 259 258 257 256 256 256 257 257 257 257 257 257 257 258 259 259 259 259 259 259 259 261 262 262 263 263 264 265 265 266 266 267 268 269 270 272 274 275 275 275 275 276 277 277 278 278 277 276 274 274 274 275 275 276 277 276 276 276 277 277 277 277 277 277 277 277 276 276 277 278 278 278 278 277 276 275
256 257 258 259 260 260 260 261 260 258 256 255 254 254 255 255 255 255 255 256 256 256 256 257 257 257 258 259 259 260 260 261 261 261 261 262 263 264 265 266 267 267 269 271 272 273 274 274 275 276 277 278 279 279 279 278 276 276 275 276 277 277 277 276 276 275 275 276 276 276 276 276 276 276 277 278 279 280 281 280 279 278 276 275 274
255 255 256 257 258 258 258 258 258 256 255 253 252 251 252 252 253 254 255 255 256 255 255 255 256 257 258 259 259 259 258 258 259 260 260 261 262 263 264 265 266 268 269 271 271 272 273 274 276 277 278 279 280 281 280 278 277 278 278 277 277 276 276 275 274 274 274 274 274 275 275 276 277 277 278 280 281 281 280 278 277 276 276 276 275
255 255 255 256 257 257 256 256 255 254 253 252 251 250 249 250 251 252 253 254 254 254 254 254 255 256 257 257 257 257 258 258 258 258 259 261 262 263 264 265 267 268 268 269 269 271 273 275 276 277 279 280 281 280 279 278 279 279 278 277 275 274 273 272 272 272 273 273 273 274 276 276 277 277 279 279 278 277 276 275 275 275 275 275 275
255 255 254 254 254 254 253 252 251 251 250 250 249 249 249 249 250 251 251 252 253 254 255 255 255 254 255 255 256 256 257 257 257 257 259 260 262 263 265 266 267 266 266 267 269 271 272 274 275 277 278 279 279 278 278 279 279 278 276 274 272 271 270 270 270 271 271 272 272 273 273 273 274 275 275 274 272 271 271 272 272 272 272 272 273
255 254 253 252 251 250 249 249 248 248 248 248 248 248 248 249 250 250 251 251 252 254 255 255 254 254 254 254 254 254 254 255 256 257 259 260 262 263 264 265 264 264 265 267 268 269 271 272 274 275 276 277 276 276 277 277 276 274 272 270 268 267 267 267 268 268 268 269 269 268 268 270 272 272 272 270 269 269 270 271 272 272 272 272 272
255 254 253 252 251 249 248 246 246 245 245 245 246 247 247 248 248 249 250 251 252 253 253 253 253 252 252 252 252 252 253 254 256 257 259 260 261 261 261 261 262 263 264 265 266 267 268 270 272 273 274 274 274 273 273 273 271 268 267 265 265 265 265 265 265 265 266 265 265 266 268 270 272 272 272 272 272 273 274 275 276 276 275 275 274
255 254 252 251 249 248 246 245 243 243 242 243 243 244 245 246 247 248 249 250 250 250 251 250 250 250 250 250 251 251 252 254 255 256 257 257 257 258 258 259 260 261 261 262 263 265 267 269 270 271 271 271 270 270 269 267 266 264 262 262 262 262 261 261 262 264 264 265 266 268 271 274 275 276 277 277 278 280 282 284 285 285 284 282 280
255 253 251 249 247 246 244 243 242 241 241 242 242 243 244 245 246 246 247 247 247 247 247 247 248 248 249 249 250 251 252 253 254 254 254 254 254 255 255 256 256 257 258 259 261 263 265 266 267 267 267 266 266 265 264 263 261 260 258 257 257 257 257 258 259 262 264 267 270 273 275 278 280 282 283 284 286 288 290 291 292 291 290 288 284
253 251 249 246 244 242 241 240 240 240 240 241 242 242 242 242 242 242 242 242 243 244 245 246 246 247 248 248 249 250 251 251 251 250 251 251 251 252 252 252 252 253 255 256 258 260 261 262 262 263 262 261 261 261 260 259 257 254 252 251 252 253 253 254 257 261 266 269 273 276 278 280 282 284 286 288 290 293 294 295 294 293 292 290 286
251 249 247 243 240 237 236 234 233 233 234 234 235 235 236 236 237 238 239 240 241 243 244 245 245 246 247 247 248 248 248 247 247 247 247 247 247 247 247 247 248 249 251 253 254 255 256 257 257 258 257 257 258 257 256 254 251 247 244 244 248 250 251 252 256 262 266 269 272 274 276 278 280 282 285 289 292 295 297 297 297 297 296 292 286
251 249 247 243 239 235 232 230 229 229 229 229 230 231 232 234 235 237 238 240 241 242 242 243 244 245 245 245 244 244 243 243 243 243 243 242 242 242 242 243 244 245 247 248 249 250 251 252 253 254 254 254 254 252 250 247 243 239 237 239 244 248 249 251 255 261 265 268 270 271 273 275 278 282 286 291 294 296 298 299 299 298 297 293 288
251 250 247 243 238 233 229 226 225 225 225 226 228 229 231 232 234 236 237 238 239 240 240 241 242 242 241 241 240 239 239 239 239 238 238 238 238 238 238 239 241 242 243 244 244 245 246 248 249 250 250 250 249 248 244 239 235 232 231 235 242 248 249 250 253 258 262 265 267 269 271 274 277 280 286 292 295 297 298 299 298 296 295 292 287
246 246 244 241 236 232 228 224 222 221 221 223 224 227 229 231 233 235 236 237 238 238 239 239 238 238 237 236 236 235 235 234 234 234 233 234 234 235 235 237 238 239 239 240 240 241 243 245 245 245 245 246 246 243 239 233 230 228 228 230 237 244 248 250 252 255 258 261 264 267 270 272 273 276 282 289 294 297 299 298 296 293 290 288 286
242 241 239 236 232 229 227 225 222 220 219 219 219 221 223 225 226 228 230 232 233 234 235 235 234 234 233 232 231 230 230 229 229 229 230 231 232 233 234 234 235 236 236 237 238 239 240 240 241 242 242 242 242 241 237 231 226 225 225 227 233 240 245 248 251 254 256 258 261 264 267 268 267 268 274 283 289 294 297 296 294 291 287 284 283
239 238 236 233 230 227 226 225 222 220 218 217 217 217 218 218 219 220 222 223 224 225 226 227 229 230 230 229 227 225 225 225 226 226 227 229 230 231 232 233 233 234 235 237 238 237 237 237 238 240 241 241 240 240 237 231 226 224 224 226 229 235 241 245 248 251 254 256 257 260 263 263 261 260 265 274 283 289 293 294 293 291 286 282 278
Height
10536 10535 10534 10535 10537 10537 10536 10536 10537 10538 10537 10537 10538 10539 10537 10536 10536 10537 10537 10538 10539 10539 10541 10542 10543 10543 10544 10545 10546 10547 10547 10547 10547 10548 10548 10548 10548 10549 10549 10550 10551 10552 10553 10555 10556 10557 10558 10558 10559 10560 10561 10562 10563 10564 10565 10566 10568 10569 10570 10571 10572 10573 10575 10577 10579 10581 10582 10584 10585 10586 10588 10589 10591 10592 10593 10595 10596 10597 10599 10600 10601 10603 10604 10606 10608
10531 10531 10530 10530 10531 10532 10531 10530 10531 10533 10532 10533 10535 10535 10531 10528 10528 10529 10529 10531 10532 10532 10532 10533 10534 10535 10536 10537 10538 10539 10540 10540 10540 10540 10540 10541 10541 10542 10543 10544 10545 10546 10548 10549 10550 10551 10552 10552 10553 10554 10556 10557 10558 10559 10560 10561 10562 10563 10564 10565 10566 10567 10568 10569 10571 10573 10575 10577 10578 10579 10580 10582 10584 10585 10587 10588 10589 10590 10591 10593 10594 10595 10596 10598 10601
10527 10526 10525 10524 10524 10525 10524 10524 10525 10527 10527 10528 10529 10528 10523 10520 10521 10522 10521 10522 10524 10525 10525 10525 10526 10527 10528 10528 10529 10530 10531 10531 10532 10532 10533 10533 10534 10536 10537 10537 10539 10540 10541 10543 10544 10545 10545 10546 10547 10548 10549 10551 10552 10553 10554 10555 10556 10557 10557 10558 10559 10560 10561 10562 10564 10565 10567 10569 10570 10572 10573 10575 10576 10578 10579 10581 10582 10583 10584 10585 10586 10587 10589 10591 10593
10521 10519 10518 10517 10518 10518 10518 10518 10519 10521 10523 10524 10523 10520 10515 10513 10514 10515 10514 10513 10514 10515 10517 10518 10518 10519 10519 10519 10520 10521 10521 10523 10524 10524 10525 10526 10528 10529 10530 10531 10532 10533 10535 10536 10537 10538 10539 10540 10541 10542 10543 10544 10545 10547 10548 10549 10550 10551 10551 10552 10552 10553 10554 10555 10556 10558 10560 10561 10563 10564 10565 10567 10569 10570 10572 10573 10574 10576 10577 10578 10579 10580 10582 10583 10585
10512 10511 10511 10510 10510 10512 10513 10513 10514 10517 10518 10518 10515 10512 10509 10507 10507 10507 10506 10506 10506 10506 10508 10510 10511 10511 10511 10511 10511 10512 10512 10514 10515 10516 10517 10518 10520 10521 10523 10524 10525 10527 10529 10529 10530 10532 10533 10534 10535 10536 10537 10538 10539 10540 10541 10542 10543 10544 10544 10545 10546 10546 10547 10548 10549 10550 10552 10554 10555 10556 10557 10559 10561 10563 10564 10565 10566 10568 10569 10570 10572 10573 10574 10576 10577
10505 10505 10505 10504 10503 10505 10507 10508 10510 10512 10511 10508 10507 10506 10503 10501 10499 10498 10499 10500 10498 10497 10498 10499 10501 10502 10502 10503 10503 10503 10504 10506 10507 10509 10510 10511 10512 10514 10515 10517 10518 10520 10522 10522 10523 10525 10526 10527 10527 10529 10530 10531 10531 10532 10532 10534 10535 10536 10536 10537 10538 10539 10540 10541 10542 10543 10544 10546 10548 10549 10550 10552 10553 10555 10557 10557 10558 10560 10560 10561 10563 10565 10566 10567 10569
10499 10498 10498 10497 10497 10499 10501 10502 10503 10504 10503 10501 10501 10500 10497 10494 10491 10491 10494 10494 10490 10489 10489 10489 10492 10494 10495 10495 10496 10496 10497 10498 10500 10501 10503 10504 10505 10506 10507 10509 10511 10512 10514 10515 10516 10517 10519 10519 10520 10520 10521 10522 10522 10523 10524 10526 10527 10527 10528 10529 10530 10531 10532 10533 10534 10535 10536 10538 10540 10541 10543 10544 10545 10546 10548 10549 10550 10551 10552 10553 10555 10556 10557 10558 10561
10491 10490 10490 10490 10491 10492 10492 10492 10492 10494 10495 10494 10494 10493 10490 10488 10486 10486 10489 10487 10483 10483 10483 10482 10484 10488 10489 10490 10490 10491 10491 10492 10493 10494 10495 10496 10497 10498 10500 10502 10504 10505 10506 10507 10507 10508 10510 10510 10511 10511 10511 10512 10513 10514 10516 10518 10518 10518 10519 10521 10521 10522 10523 10524 10526 10527 10528 10529 10531 10532 10534 10536 10537 10538 10539 10541 10542 10542 10544 10545 10545 10547 10549 10549 10551
10483 10484 10484 10483 10484 10484 10483 10484 10485 10485 10485 10484 10483 10484 10483 10481 10480 10480 10481 10481 10480 10481 10480 10478 10479 10481 10484 10485 10484 10484 10484 10483 10484 10486 10487 10487 10489 10490 10492 10494 10496 10498 10499 10499 10498 10499 10500 10500 10500 10500 10501 10502 10504 10505 10507 10508 10508 10508 10510 10511 10512 10513 10515 10516 10518 10519 10520 10520 10522 10523 10524 10526 10528 10529 10529 10532 10533 10533 10535 10536 10536 10537 10539 10540 10541
10476 10477 10476 10474 10476 10475 10475 10479 10480 10477 10477 10475 10473 10476 10477 10475 10474 10474 10475 10476 10478 10479 10478 10476 10475 10475 10477 10478 10477 10477 10476 10474 10475 10476 10477 10477 10479 10481 10482 10484 10487 10489 10490 10490 10489 10489 10489 10489 10489 10490 10491 10492 10495 10496 10497 10497 10497 10498 10500 10501 10502 10503 10505 10507 10509 10510 10511 10511 10512 10513 10514 10516 10518 10519 10520 10522 10524 10524 10525 10527 10527 10527 10529 10530 10530
10468 10468 10468 10467 10468 10467 10468 10472 10472 10470 10470 10469 10466 10468 10470 10470 10470 10470 10471 10471 10473 10475 10475 10473 10472 10471 10471 10470 10469 10469 10468 10466 10466 10466 10466 10468 10469 10471 10472 10474 10476 10478 10479 10480 10481 10480 10478 10477 10478 10479 10480 10483 10485 10485 10485 10486 10486 10488 10490 10491 10491 10493 10495 10497 10499 10501 10502 10502 10502 10503 10504 10505 10506 10509 10511 10512 10514 10515 10515 10516 10518 10518 10519 10520 10519
10459 10460 10460 10459 10460 10460 10460 10462 10462 10461 10462 10462 10461 10461 10462 10463 10464 10465 10465 10465 10466 10468 10468 10468 10466 10466 10465 10463 10462 10461 10460 10459 10458 10458 10459 10459 10460 10462 10463 10463 10465 10466 10468 10471 10471 10469 10467 10467 10469 10469 10470 10473 10476 10475 10475 10476 10477 10478 10479 10480 10480 10482 10484 10487 10488 10490 10492 10492 10492 10492 10494 10495 10495 10497 10500 10502 10503 10504 10505 10506 10508 10509 10509 10510 10510
10451 10452 10452 10452 10453 10453 10453 10453 10452 10452 10453 10454 10454 10455 10455 10455 10456 10457 10458 10459 10459 10459 10459 10459 10458 10457 10457 10455 10453 10452 10451 10451 10451 10452 10452 10452 10452 10453 10453 10453 10454 10456 10459 10460 10459 10457 10458 10460 10461 10461 10461 10464 10467 10465 10466 10467 10467 10467 10469 10470 10471 10472 10473 10475 10477 10479 10481 10481 10481 10481 10482 10485 10485 10485 10488 10492 10492 10493 10494 10495 10497 10499 10499 10499 10501
10442 10442 10443 10444 10445 10446 10445 10444 10443 10443 10443 10444 10445 10446 10447 10448 10448 10449 10450 10451 10451 10451 10451 10450 10449 10448 10447 10446 10444 10443 10443 10443 10445 10445 10445 10444 10444 10445 10445 10445 10445 10447 10449 10450 10449 10447 10446 10448 10450 10451 10452 10455 10456 10455 10456 10456 10456 10457 10459 10461 10461 10462 10462 10463 10465 10468 10469 10469 10470 10470 10470 10473 10475 10474 10475 10479 10482 10482 10483 10484 10485 10487 10489 10489 10491
10431 10432 10433 10434 10436 10437 10437 10436 10435 10434 10434 10434 10436 10437 10438 10439 10440 10442 10442 10442 10442 10442 10441 10441 10440 10439 10437 10435 10435 10434 10434 10435 10436 10437 10437 10437 10437 10437 10437 10437 10437 10437 10438 10439 10438 10436 10434 10435 10438 10439 10440 10444 10447 10446 10446 10445 10445 10447 10449 10450 10450 10451 10452 10453 10455 10457 10457 10457 10458 10459 10459 10460 10463 10464 10464 10465 10469 10471 10472 10474 10474 10475 10478 10480 10480
10419 10420 10422 10423 10425 10427 10428 10428 10427 10426 10426 10426 10427 10428 10429 10431 10432 10433 10433 10433 10433 10432 10432 10431 10430 10429 10427 10425 10425 10425 10425 10426 10427 10427 10427 10427 10428 10429 10429 10428 10428 10428 10429 10428 10427 10426 10425 10425 10427 10427 10428 10433 10435 10435 10434 10433 10435 10437 10438 10439 10440 10441 10441 10443 10444 10445 10446 10446 10447 10448 10448 10449 10451 10453 10453 10453 10456 10459 10462 10464 10463 10464 10467 10470 10470
10409 10410 10411 10412 10414 10416 10416 10417 10417 10418 10418 10419 10420 10421 10421 10423 10424 10424 10424 10423 10423 10423 10423 10422 10420 10419 10418 10416 10415 10415 10414 10415 10416 10417 10416 10415 10416 10417 10418 10418 10418 10418 10419 10419 10418 10417 10417 10416 10416 10416 10418 10421 10423 10423 10422 10422 10424 10427 10428 10428 10429 10429 10429 10430 10431 10432 10434 10435 10436 10436 10438 10438 10438 10440 10441 10441 10442 10445 10449 10452 10451 10452 10456 10459 10459
10400 10400 10402 10403 10404 10405 10405 10405 10406 10408 10408 10409 10410 10411 10412 10413 10414 10414 10414 10414 10414 10414 10413 10411 10410 10409 10408 10407 10407 10406 10404 10404 10405 10405 10405 10404 10404 10404 10406 10407 10407 10407 10408 10409 10408 10408 10408 10408 10407 10407 10408 10409 10410 10410 10411 10412 10413 10416 10416 10417 10417 10417 10416 10417 10417 10418 10420 10422 10423 10424 10425 10426 10427 10427 10428 10429 10430 10431 10435 10439 10439 10440 10444 10446 10447
10389 10390 10392 10393 10394 10394 10395 10395 10395 10396 10397 10397 10398 10399 10399 10400 10401 10402 10402 10403 10404 10403 10402 10400 10399 10398 10397 10396 10396 10396 10395 10394 10394 10393 10392 10392 10392 10392 10393 10394 10395 10396 10396 10397 10397 10397 10397 10398 10398 10397 10397 10397 10398 10399 10400 10401 10403 10404 10404 10405 10405 10404 10403 10403 10404 10405 10406 10408 10409 10411 10413 10414 10415 10416 10416 10416 10417 10418 10420 10424 10426 10428 10430 10432 10434
10376 10377 10379 10381 10383 10383 10383 10383 10384 10384 10385 10385 10386 10387 10387 10387 10388 10389 10390 10391 10392 10391 10390 10389 10388 10386 10385 10384 10384 10384 10383 10383 10382 10381 10381 10380 10380 10381 10381 10381 10383 10384 10385 10385 10386 10386 10386 10386 10386 10386 10386 10385 10385 10387 10389 10390 10391 10392 10392 10392 10392 10391 10390 10391 10391 10392 10393 10394 10396 10398 10399 10400 10401 10403 10403 10404 10404 10405 10406 10409 10411 10414 10417 10419 10419
10364 10365 10367 10369 10371 10372 10373 10373 10373 10373 10372 10372 10372 10373 10373 10373 10374 10374 10376 10378 10378 10378 10377 10377 10376 10375 10374 10373 10372 10371 10371 10371 10371 10370 10369 10369 10369 10368 10368 10369 10370 10372 10373 10374 10374 10374 10374 10374 10374 10374 10374 10374 10375 10376 10377 10377 10377 10378 10378 10378 10378 10378 10379 10378 10378 10379 10380 10382 10383 10384 10385 10386 10387 10388 10390 10390 10391 10391 10391 10393 10395 10398 10402 10404 10405
10352 10354 10356 10357 10359 10360 10362 10362 10362 10361 10360 10360 10359 10359 10359 10358 10358 10358 10360 10362 10364 10365 10364 10364 10363 10362 10362 10361 10361 10360 10360 10360 10359 10358 10358 10357 10357 10356 10356 10356 10357 10359 10361 10362 10362 10362 10363 10363 10363 10362 10362 10363 10364 10364 10364 10363 10362 10363 10363 10364 10365 10366 10366 10365 10365 10367 10369 10370 10371 10371 10371 10372 10373 10374 10375 10376 10376 10376 10377 10378 10379 10381 10384 10388 10390
10339 10341 10344 10345 10346 10347 10348 10349 10350 10350 10349 10349 10348 10347 10346 10346 10346 10345 10346 10347 10349 10350 10350 10350 10349 10349 10350 10350 10350 10350 10350 10349 10348 10347 10346 10345 10344 10344 10344 10344 10345 10347 10349 10350 10351 10351 10352 10352 10352 10351 10351 10351 10351 10351 10349 10348 10349 10350 10350 10351 10351 10351 10352 10353 10354 10356 10357 10357 10358 10359 10359 10359 10360 10360 10360 10360 10360 10361 10362 10363 10363 10364 10366 10369 10373
10325 10327 10329 10330 10331 10332 10334 10335 10336 10337 10337 10337 10336 10334 10335 10336 10337 10337 10337 10337 10335 10333 10334 10335 10337 10337 10338 10338 10339 10339 10339 10339 10337 10335 10334 10334 10333 10332 10332 10333 10334 10335 10337 10339 10340 10341 10341 10341 10341 10340 10340 10340 10339 10338 10337 10336 10337 10338 10339 10339 10339 10338 10339 10341 10342 10343 10345 10345 10345 10346 10346 10345 10345 10344 10344 10344 10345 10345 10346 10347 10347 10347 10349 10352 10355
10311 10314 10315 10315 10316 10317 10318 10320 10322 10323 10324 10324 10323 10324 10326 10328 10328 10328 10328 10328 10326 10322 10321 10322 10323 10324 10325 10325 10327 10328 10329 10328 10327 10325 10324 10323 10322 10322 10322 10323 10324 10324 10325 10327 10329 10331 10331 10330 10330 10329 10328 10328 10327 10326 10326 10326 10326 10327 10327 10327 10327 10327 10328 10329 10330 10332 10333 10333 10333 10333 10332 10331 10329 10329 10329 10329 10329 10329 10330 10331 10332 10332 10333 10336 10339
10297 10300 10301 10302 10302 10302 10304 10305 10307 10309 10310 10311 10312 10315 10317 10317 10316 10316 10316 10317 10316 10315 10314 10312 10311 10310 10311 10312 10315 10317 10318 10317 10316 10315 10315 10315 10314 10313 10312 10312 10313 10313 10314 10316 10318 10320 10320 10319 10318 10317 10316 10316 10316 10316 10316 10316 10316 10316 10316 10316 10316 10316 10317 10318 10319 10320 10320 10320 10320 10320 10318 10316 10315 10315 10315 10315 10315 10315 10315 10316 10318 10319 10320 10323 10325
10283 10286 10287 10288 10289 10290 10290 10292 10292 10293 10295 10298 10301 10303 10304 10303 10302 10302 10303 10303 10304 10305 10306 10305 10302 10299 10299 10301 10304 10305 10306 10306 10305 10306 10306 10306 10305 10304 10304 10303 10304 10304 10305 10306 10307 10308 10308 10307 10307 10307 10307 10307 10307 10307 10307 10306 10306 10307 10307 10307 10307 10307 10307 10308 10308 10308 10308 10308 10308 10306 10305 10303 10303 10302 10301 10301 10301 10301 10302 10303 10306 10307 10308 10309 10312
10270 10272 10273 10274 10275 10277 10278 10278 10278 10279 10282 10286 10288 10289 10289 10288 10287 10288 10290 10292 10293 10294 10295 10296 10294 10291 10290 10291 10293 10295 10295 10295 10296 10296 10296 10296 10296 10296 10295 10295 10295 10295 10296 10296 10297 10297 10296 10296 10297 10297 10298 10298 10298 10298 10298 10298 10298 10298 10298 10298 10298 10298 10298 10298 10298 10298 10297 10297 10296 10294 10293 10291 10290 10289 10288 10289 10290 10290 10291 10293 10295 10296 10296 10298 10300
10257 10259 10259 10260 10261 10263 10265 10265 10265 10267 10270 10274 10275 10276 10276 10274 10274 10276 10279 10281 10282 10283 10284 10285 10285 10284 10283 10283 10284 10285 10286 10287 10287 10287 10287 10287 10287 10287 10287 10287 10287 10287 10287 10287 10287 10286 10286 10287 10288 10288 10289 10289 10289 10290 10289 10289 10289 10290 10290 10289 10289 10289 10289 10289 10288 10287 10287 10286 10284 10283 10281 10280 10279 10279 10280 10281 10282 10281 10282 10283 10285 10286 10286 10287 10288
10245 10246 10247 10247 10248 10250 10252 10253 10254 10256 10259 10261 10263 10264 10265 10263 10262 10264 10267 10270 10270 10271 10273 10275 10276 10275 10275 10275 10275 10276 10277 10278 10278 10278 10278 10279 10279 10279 10279 10279 10278 10278 10278 10278 10278 10278 10278 10279 10280 10280 10281 10281 10282 10281 10281 10281 10281 10281 10281 10281 10281 10281 10280 10279 10278 10277 10276 10274 10273 10273 10273 10273 10273 10273 10273 10273 10273 10272 10272 10273 10274 10275 10275 10275 10275
10234 10235 10235 10235 10237 10238 10239 10241 10244 10246 10248 10250 10252 10253 10253 10251 10251 10253 10256 10258 10259 10261 10264 10265 10266 10266 10266 10267 10268 10268 10269 10270 10270 10270 10270 10271 10271 10271 10271 10270 10271 10271 10270 10270 10270 10271 10272 10272 10272 10273 10273 10273 10273 10273 10273 10274 10273 10273 10273 10272 10272 10272 10271 10269 10268 10267 10266 10266 10266 10266 10266 10267 10266 10266 10265 10264 10264 10263 10263 10263 10264 10265 10265 10264 10264
10222 10223 10223 10223 10225 10226 10228 10231 10234 10236 10237 10239 10241 10241 10241 10240 10241 10243 10245 10247 10249 10252 10255 10256 10256 10257 10258 10259 10260 10260 10261 10261 10262 10262 10262 10262 10263 10263 10263 10263 10264 10263 10263 10263 10264 10265 10265 10265 10265 10265 10265 10265 10265 10265 10265 10266 10265 10265 10264 10263 10262 10262 10262 10261 10260 10259 10260 10260 10260 10260 10259 10258 10258 10257 10256 10256 10256 10255 10255 10255 10255 10256 10256 10255 10255
10211 10211 10211 10211 10212 10214 10217 10222 10225 10226 10227 10228 10230 10231 10231 10230 10231 10233 10236 10239 10241 10244 10245 10246 10247 10249 10251 10252 10252 10252 10252 10252 10253 10254 10254 10255 10256 10256 10257 10257 10257 10257 10257 10257 10258 10258 10258 10258 10258 10258 10258 10258 10258 10258 10258 10258 10258 10257 10256 10255 10254 10253 10253 10253 10254 10254 10254 10254 10253 10252 10251 10250 10250 10250 10249 10249 10248 10248 10247 10247 10247 10247 10247 10247 10247
10201 10200 10200 10201 10202 10204 10207 10211 10216 10217 10217 10219 10220 10221 10221 10221 10222 10225 10228 10231 10233 10235 10236 10237 10239 10241 10243 10244 10244 10243 10243 10244 10245 10246 10247 10248 10249 10250 10250 10250 10250 10251 10251 10251 10251 10251 10252 10252 10252 10251 10251 10251 10251 10251 10251 10251 10251 10250 10249 10248 10247 10246 10246 10247 10248 10247 10246 10246 10245 10245 10244 10243 10242 10242 10242 10242 10241 10240 10240 10240 10239 10239 10239 10239 10239
10192 10192 10191 10192 10193 10195 10197 10201 10206 10208 10209 10209 10210 10211 10212 10213 10215 10217 10220 10222 10224 10226 10227 10229 10231 10233 10234 10234 10235 10235 10236 10237 10239 10240 10240 10241 10242 10243 10243 10244 10245 10246 10246 10245 10245 10245 10245 10245 10245 10245 10245 10244 10245 10245 10246 10245 10245 10244 10242 10242 10241 10241 10241 10241 10241 10240 10239 10238 10238 10238 10237 10236 10236 10236 10235 10235 10234 10234 10233 10233 10233 10233 10233 10233 10233
10184 10184 10183 10183 10185 10187 10188 10191 10195 10198 10200 10200 10201 10202 10204 10206 10207 10208 10211 10213 10215 10217 10219 10221 10223 10224 10225 10226 10227 10228 10230 10231 10233 10234 10234 10235 10235 10236 10237 10238 10239 10240 10240 10239 10240 10240 10239 10239 10239 10238 10238 10239 10239 10239 10239 10239 10238 10237 10237 10236 10235 10235 10235 10235 10234 10233 10232 10232 10231 10231 10231 10230 10230 10230 10229 10228 10228 10228 10228 10228 10228 10227 10227 10227 10227
10176 10176 10175 10175 10177 10179 10181 10183 10186 10189 10191 10192 10194 10195 10197 10198 10198 10200 10202 10204 10207 10210 10212 10213 10214 10215 10217 10219 10221 10223 10224 10225 10226 10227 10228 10228 10229 10230 10231 10233 10233 10233 10234 10234 10234 10234 10233 10233 10232 10233 10233 10233 10233 10233 10233 10232 10231 10231 10231 10230 10230 10229 10229 10229 10228 10227 10227 10226 10226 10226 10225 10225 10224 10224 10224 10223 10224 10224 10224 10223 10223 10222 10222 10222 10222
10167 10167 10167 10168 10170 10172 10174 10176 10178 10180 10182 10184 10186 10188 10189 10190 10191 10193 10195 10197 10200 10202 10204 10205 10207 10209 10211 10213 10215 10216 10217 10218 10220 10221 10221 10222 10223 10224 10226 10227 10227 10228 10228 10228 10228 10227 10227 10227 10227 10227 10227 10227 10227 10227 10226 10226 10226 10225 10225 10225 10224 10224 10223 10223 10222 10222 10222 10222 10221 10221 10220 10220 10219 10219 10219 10220 10220 10220 10219 10219 10218 10218 10218 10218 10217
10159 10159 10161 10162 10164 10165 10167 10169 10171 10172 10174 10176 10179 10180 10181 10183 10185 10187 10189 10191 10193 10194 10196 10199 10202 10204 10205 10207 10208 10209 10210 10212 10213 10214 10214 10215 10217 10219 10220 10221 10222 10222 10222 10222 10221 10221 10222 10222 10222 10221 10221 10221 10221 10221 10220 10220 10220 10220 10220 10220 10219 10219 10218 10218 10218 10217 10218 10217 10217 10217 10216 10216 10215 10216 10216 10217 10217 10216 10215 10215 10215 10215 10214 10214 10213
10151 10153 10154 10156 10157 10158 10159 10161 10163 10164 10166 10168 10170 10172 10173 10176 10179 10181 10183 10184 10185 10187 10190 10194 10196 10198 10199 10200 10202 10203 10204 10206 10206 10207 10208 10210 10211 10212 10214 10215 10216 10216 10216 10216 10216 10217 10217 10217 10216 10216 10216 10216 10216 10215 10215 10215 10216 10215 10215 10215 10214 10214 10214 10214 10214 10214 10214 10214 10214 10213 10213 10212 10212 10213 10213 10213 10213 10213 10212 10212 10211 10211 10211 10210 10210
10145 10146 10147 10148 10150 10151 10153 10154 10156 10157 10159 10161 10163 10164 10167 10169 10172 10174 10176 10178 10179 10182 10185 10188 10190 10191 10193 10195 10196 10197 10198 10199 10200 10201 10203 10205 10206 10207 10208 10209 10209 10209 10210 10211 10211 10212 10212 10212 10212 10212 10212 10211 10211 10210 10211 10211 10211 10211 10210 10210 10210 10210 10210 10210 10210 10210 10210 10210 10210 10210 10210 10210 10210 10210 10210 10210 10209 10209 10209 10209 10208 10208 10208 10208 10207
10138 10140 10141 10142 10143 10145 10146 10148 10149 10151 10153 10154 10156 10158 10161 10163 10165 10167 10169 10172 10174 10177 10179 10181 10183 10185 10187 10189 10190 10191 10192 10193 10195 10196 10198 10199 10200 10201 10202 10203 10203 10204 10205 10206 10206 10207 10207 10207 10207 10207 10207 10207 10206 10206 10207 10207 10207 10207 10206 10206 10206 10206 10206 10206 10207 10207 10207 10207 10207 10207 10207 10207 10207 10207 10206 10206 10206 10206 10206 10205 10205 10205 10205 10204 10204
10133 10134 10135 10136 10137 10138 10140 10142 10143 10145 10147 10149 10151 10153 10155 10157 10159 10162 10165 10167 10170 10172 10173 10175 10177 10179 10181 10182 10183 10185 10186 10188 10190 10191 10193 10193 10194 10195 10196 10197 10198 10199 10200 10201 10201 10202 10202 10202 10202 10202 10202 10202 10202 10202 10203 10203 10203 10203 10203 10202 10203 10203 10203 10203 10204 10204 10204 10204 10204 10204 10205 10205 10204 10204 10203 10203 10203 10203 10203 10202 10202 10202 10201 10201 10201
10128 10129 10130 10131 10132 10133 10134 10136 10138 10140 10142 10144 10146 10148 10150 10153 10156 10158 10161 10162 10164 10166 10167 10169 10172 10174 10175 10176 10178 10179 10181 10183 10185 10186 10186 10187 10188 10190 10191 10192 10193 10194 10195 10196 10197 10197 10198 10198 10198 10198 10198 10198 10198 10199 10199 10199 10199 10199 10199 10199 10200 10200 10200 10201 10201 10201 10201 10201 10202 10202 10202 10202 10202 10201 10201 10200 10200 10200 10200 10199 10199 10199 10198 10198 10198
10124 10125 10126 10127 10128 10129 10130 10132 10134 10136 10138 10140 10143 10145 10148 10150 10152 10154 10155 10157 10159 10161 10163 10165 10167 10168 10170 10171 10173 10175 10176 10178 10179 10179 10180 10182 10183 10185 10186 10187 10188 10189 10190 10191 10192 10193 10193 10193 10193 10193 10194 10194 10194 10195 10195 10196 10196 10196 10196 10197 10197 10197 10198 10198 10199 10199 10199 10200 10200 10200 10200 10200 10199 10199 10198 10198 10197 10197 10197 10196 10196 10196 10196 10195 10195
10120 10121 10122 10123 10125 10126 10127 10128 10130 10132 10134 10137 10139 10141 10143 10145 10147 10149 10150 10152 10154 10157 10159 10160 10162 10163 10165 10167 10168 10170 10171 10172 10173 10174 10175 10177 10178 10179 10180 10182 10183 10184 10186 10187 10188 10188 10189 10189 10189 10189 10190 10190 10190 10191 10192 10192 10193 10193 10193 10194 10194 10195 10196 10196 10197 10197 10197 10198 10198 10198 10198 10197 10197 10196 10196 10196 10195 10195 10194 10194 10193 10193 10193 10193 10193
10117 10118 10119 10120 10121 10122 10124 10125 10127 10129 10131 10133 10135 10137 10139 10141 10143 10145 10147 10149 10151 10153 10154 10156 10157 10158 10160 10162 10163 10164 10165 10166 10168 10169 10171 10172 10173 10175 10176 10177 10179 10181 10182 10183 10184 10184 10185 10185 10185 10186 10186 10186 10187 10188 10189 10189 10190 10190 10191 10191 10192 10192 10193 10194 10194 10195 10195 10196 10196 10196 10196 10195 10195 10194 10194 10194 10193 10193 10192 10192 10191 10191 10191 10191 10191
10114 10115 10116 10117 10118 10119 10121 10122 10124 10126 10128 10130 10132 10134 10136 10137 10139 10141 10143 10145 10146 10148 10150 10151 10152 10154 10155 10156 10158 10159 10161 10162 10163 10165 10166 10168 10169 10171 10172 10174 10176 10177 10178 10179 10180 10180 10181 10181 10182 10182 10182 10183 10184 10184 10185 10186 10187 10188 10188 10189 10189 10190 10191 10192 10192 10193 10193 10194 10194 10194 10194 10193 10193 10192 10192 10192 10191 10191 10191 10190 10190 10190 10190 10190 10190
10112 10113 10114 10115 10116 10117 10118 10119 10121 10123 10125 10126 10128 10130 10132 10134 10136 10138 10139 10141 10142 10144 10145 10147 10148 10149 10150 10152 10153 10155 10156 10158 10159 10161 10162 10164 10165 10167 10169 10170 10172 10173 10174 10175 10176 10177 10177 10178 10178 10179 10179 10180 10180 10181 10182 10183 10184 10185 10186 10186 10187 10188 10189 10190 10190 10191 10191 10192 10192 10192 10192 10191 10191 10191 10191 10190 10190 10189 10189 10189 10189 10189 10189 10189 10189
10110 10111 10112 10113 10114 10115 10116 10117 10118 10120 10122 10123 10125 10127 10128 10130 10132 10134 10135 10137 10138 10140 10141 10142 10144 10145 10146 10148 10150 10151 10153 10154 10156 10157 10159 10160 10162 10164 10166 10167 10169 10170 10171 10172 10172 10173 10174 10174 10175 10175 10176 10176 10177 10178 10179 10180 10181 10182 10183 10184 10185 10186 10187 10187 10188 10188 10189 10190 10190 10191 10190 10190 10189 10189 10189 10189 10188 10188 10188 10188 10188 10188 10187 10187 10187
10108 10109 10110 10111 10112 10113 10114 10115 10116 10118 10119 10120 10122 10123 10124 10126 10128 10129 10131 10133 10134 10136 10137 10139 10140 10142 10143 10145 10146 10148 10150 10151 10153 10154 10156 10157 10159 10161 10162 10164 10165 10166 10167 10168 10169 10169 10170 10171 10171 10172 10173 10173 10174 10175 10176 10177 10178 10179 10180 10181 10182 10183 10184 10185 10186 10186 10187 10187 10188 10189 10189 10188 10187 10187 10187 10187 10187 10187 10187 10187 10186 10186 10186 10186 10186